GW4613 Weather Reports


time (UTC)temp
C
wind
direction
speed
KPH
gust
KPH
rain 1hr
cm
rain 24hr
cm
rain mn
cm
humidity
%
barometer
mb
20260504081702 5 279 0.0 0.0 0.00 0.00 0.00 91 1016.1
20260504081158 5 279 0.0 0.0 0.00 0.00 0.00 91 1016.1
20260504080655 5 279 0.0 0.0 0.00 0.00 0.00 91 1016.1
20260504080152 5 282 0.0 0.0 0.00 0.00 0.00 89 1016.1
20260504070119 4 64 0.0 1.6 0.00 0.00 0.00 87 1016.4
20260504050509 3 62 0.0 0.0 0.00 0.00 0.00 87 1017.2
20260504050005 3 61 0.0 0.0 0.00 0.00 0.00 86 1017.4
20260504045502 3 62 0.0 1.6 0.00 0.00 0.00 86 1017.1
20260504044957 3 62 0.0 1.6 0.00 0.00 0.00 87 1017.2
20260504044455 3 354 0.0 0.0 0.00 0.00 0.00 87 1017.3
20260504043951 3 354 0.0 0.0 0.00 0.00 0.00 90 1017.2
20260504043448 2 257 0.0 0.0 0.00 0.00 0.00 91 1017.1
20260504042946 2 281 0.0 0.0 0.00 0.00 0.00 91 1017.2
20260504042442 2 200 0.0 0.0 0.00 0.00 0.00 91 1017.1
20260504041939 2 200 0.0 0.0 0.00 0.00 0.00 90 1017.2
20260504041435 2 237 0.0 0.0 0.00 0.00 0.00 87 1017.3
20260504040931 2 240 0.0 0.0 0.00 0.00 0.00 87 1017.4
20260504040429 2 225 0.0 0.0 0.00 0.00 0.00 86 1017.2
20260504035925 2 204 0.0 0.0 0.00 0.00 0.00 85 1017.1
20260504035423 2 268 0.0 0.0 0.00 0.00 0.00 85 1017.4
20260504034919 2 268 0.0 0.0 0.00 0.00 0.00 85 1017.1
20260504034417 2 264 0.0 0.0 0.00 0.00 0.00 86 1017.3
20260504033914 2 259 0.0 0.0 0.00 0.00 0.00 86 1017.4
20260504033411 2 254 0.0 0.0 0.00 0.00 0.00 85 1017.3
20260504032908 2 257 0.0 0.0 0.00 0.00 0.00 84 1017.0
20260504032405 2 263 0.0 0.0 0.00 0.00 0.00 83 1017.1
20260504031901 3 52 0.0 0.0 0.00 0.00 0.00 81 1017.1
20260504031359 3 50 0.0 0.0 0.00 0.00 0.00 80 1017.0
20260504030855 3 59 0.0 0.0 0.00 0.00 0.00 80 1016.8
20260504030353 3 80 0.0 0.0 0.00 0.00 0.00 80 1016.8
20260504025848 4 7 0.0 1.6 0.00 0.00 0.00 75 1017.0
20260504025345 5 331 0.0 1.6 0.00 0.00 0.00 73 1016.5
20260504024842 4 350 0.0 1.6 0.00 0.00 0.00 75 1017.1
20260504024338 4 283 0.0 0.0 0.00 0.00 0.00 78 1016.8
20260504023836 4 282 0.0 0.0 0.00 0.00 0.00 77 1017.0
20260504023333 5 298 0.0 0.0 0.00 0.00 0.00 74 1017.0
20260504022828 5 301 0.0 1.6 0.00 0.00 0.00 73 1017.0
20260504022325 5 301 1.6 1.6 0.00 0.00 0.00 74 1016.8
20260504021821 5 221 0.0 0.0 0.00 0.00 0.00 76 1017.0
20260504021319 5 211 0.0 0.0 0.00 0.00 0.00 73 1016.6
20260504020816 5 211 0.0 0.0 0.00 0.00 0.00 75 1016.5
20260504020313 5 271 0.0 0.0 0.00 0.00 0.00 77 1016.6
20260504015808 6 270 0.0 0.0 0.00 0.00 0.00 72 1016.7
20260504015305 6 207 0.0 1.6 0.00 0.00 0.00 66 1016.7
20260504014801 6 250 0.0 0.0 0.00 0.00 0.00 65 1016.5
20260504014258 6 294 3.2 3.2 0.00 0.00 0.00 65 1016.3
20260504013755 6 281 1.6 1.6 0.00 0.00 0.00 66 1016.3
20260504013253 6 280 1.6 1.6 0.00 0.00 0.00 70 1016.3
20260504012749 6 218 0.0 0.0 0.00 0.00 0.00 65 1016.1
20260504012247 6 274 0.0 0.0 0.00 0.00 0.00 63 1016.1
20260504011744 7 271 0.0 1.6 0.00 0.00 0.00 65 1016.1
20260504011240 7 245 0.0 1.6 0.00 0.00 0.00 61 1015.9
20260504010736 8 283 0.0 1.6 0.00 0.00 0.00 55 1016.0
20260504010232 8 287 0.0 0.0 0.00 0.00 0.00 53 1015.8
20260504005729 9 290 0.0 0.0 0.00 0.00 0.00 50 1015.9
20260504005226 8 320 1.6 1.6 0.00 0.00 0.00 50 1015.8
20260504004724 8 285 0.0 0.0 0.00 0.00 0.00 53 1015.8
20260504004220 8 174 0.0 0.0 0.00 0.00 0.00 54 1015.6
20260504003717 9 167 0.0 0.0 0.00 0.00 0.00 53 1015.7
20260504003214 10 167 3.2 3.2 0.00 0.00 0.00 50 1015.5
20260504002711 12 330 0.0 1.6 0.00 0.00 0.00 38 1015.5
20260504002208 12 332 1.6 3.2 0.00 0.00 0.00 38 1015.5
20260504001706 12 299 0.0 0.0 0.00 0.00 0.00 37 1015.5
20260504001203 12 285 1.6 3.2 0.00 0.00 0.00 37 1015.5
20260504000659 12 299 3.2 4.8 0.00 0.00 0.00 36 1016.0
20260504000156 12 330 1.6 6.4 0.00 0.00 0.00 36 1015.6
20260503235654 13 291 3.2 4.8 0.00 0.00 0.00 38 1015.5
20260503235151 12 310 4.8 4.8 0.00 0.00 0.00 36 1015.5
20260503234649 13 297 3.2 9.7 0.00 0.00 0.00 38 1015.6
20260503234147 13 263 8.0 11.3 0.00 0.00 0.00 33 1015.6
20260503233643 13 288 4.8 4.8 0.00 0.00 0.00 37 1015.5
20260503233139 13 305 8.0 9.7 0.00 0.00 0.00 33 1015.5
20260503232636 14 263 6.4 11.3 0.00 0.00 0.00 33 1015.6
20260503232133 15 284 4.8 4.8 0.00 0.00 0.00 33 1015.4
20260503231631 15 209 8.0 14.5 0.00 0.00 0.00 32 1015.4
20260503231127 15 240 6.4 9.7 0.00 0.00 0.00 33 1015.4
20260503230625 15 269 9.7 12.9 0.00 0.00 0.00 31 1015.3
20260503230122 16 281 3.2 4.8 0.00 0.00 0.00 31 1015.4
20260503225619 15 294 3.2 9.7 0.00 0.00 0.00 30 1015.4
20260503225118 15 345 8.0 9.7 0.00 0.00 0.00 29 1015.4
20260503224616 16 320 4.8 11.3 0.00 0.00 0.00 30 1015.3
20260503224114 16 13 3.2 3.2 0.00 0.00 0.00 30 1015.3
20260503223612 16 346 0.0 4.8 0.00 0.00 0.00 32 1015.5
20260503223107 16 244 6.4 9.7 0.00 0.00 0.00 31 1015.3
20260503222606 16 334 6.4 14.5 0.00 0.00 0.00 31 1015.3
20260503222103 16 275 11.3 12.9 0.00 0.00 0.00 33 1015.3
20260503221601 16 9 14.5 17.7 0.00 0.00 0.00 29 1015.4
20260503221059 16 315 8.0 16.1 0.00 0.00 0.00 29 1015.3
20260503220554 16 219 1.6 1.6 0.00 0.00 0.00 30 1015.5
20260503220052 16 277 6.4 6.4 0.00 0.00 0.00 32 1015.4
20260503215549 16 280 4.8 16.1 0.00 0.00 0.00 32 1015.3
20260503215045 16 332 16.1 17.7 0.00 0.00 0.00 31 1015.8
20260503214544 16 31 3.2 11.3 0.00 0.00 0.00 30 1015.4
20260503214040 16 284 3.2 6.4 0.00 0.00 0.00 30 1015.4
20260503213538 16 285 8.0 11.3 0.00 0.00 0.00 32 1015.8
20260503213035 16 224 9.7 14.5 0.00 0.00 0.00 30 1015.5
20260503212532 16 336 8.0 14.5 0.00 0.00 0.00 33 1015.4
20260503212030 16 253 12.9 22.5 0.00 0.00 0.00 31 1015.2
20260503211526 16 245 8.0 11.3 0.00 0.00 0.00 30 1015.6
20260503211022 16 243 9.7 14.5 0.00 0.00 0.00 30 1015.6
20260503210519 16 265 9.7 17.7 0.00 0.00 0.00 35 1015.8
20260503210015 16 259 9.7 16.1 0.00 0.00 0.00 32 1015.7
20260503205512 16 236 9.7 14.5 0.00 0.00 0.00 32 1015.6
20260503205008 15 305 3.2 16.1 0.00 0.00 0.00 30 1015.8
20260503204505 15 323 3.2 6.4 0.00 0.00 0.00 30 1015.7
20260503204001 15 359 4.8 16.1 0.00 0.00 0.00 30 1015.8
20260503203459 16 314 11.3 17.7 0.00 0.00 0.00 35 1015.9
20260503202955 16 255 11.3 16.1 0.00 0.00 0.00 30 1015.6
20260503202454 16 252 6.4 12.9 0.00 0.00 0.00 33 1015.8
20260503201952 15 347 6.4 14.5 0.00 0.00 0.00 31 1015.8
20260503201449 16 276 9.7 12.9 0.00 0.00 0.00 32 1016.0
20260503200947 15 286 6.4 17.7 0.00 0.00 0.00 35 1016.3
20260503200443 15 288 4.8 14.5 0.00 0.00 0.00 34 1016.1
20260503195939 15 297 17.7 25.7 0.00 0.00 0.00 33 1016.2
20260503195437 16 264 8.0 12.9 0.00 0.00 0.00 38 1016.1
20260503194933 15 354 0.0 9.7 0.00 0.00 0.00 33 1016.1
20260503194430 16 222 9.7 22.5 0.00 0.00 0.00 35 1016.2
20260503193926 15 2 8.0 17.7 0.00 0.00 0.00 30 1016.3
20260503193421 15 69 3.2 6.4 0.00 0.00 0.00 31 1016.6
20260503192917 15 333 1.6 20.9 0.00 0.00 0.00 31 1016.6
20260503192414 15 308 8.0 20.9 0.00 0.00 0.00 32 1016.6
20260503191909 15 266 22.5 29.0 0.00 0.00 0.00 30 1016.3
20260503191408 15 240 6.4 14.5 0.00 0.00 0.00 36 1016.7
20260503190903 15 236 12.9 20.9 0.00 0.00 0.00 32 1016.6
20260503190401 15 301 9.7 16.1 0.00 0.00 0.00 35 1017.0
20260503185857 15 314 6.4 16.1 0.00 0.00 0.00 36 1017.0
20260503185354 14 215 3.2 12.9 0.00 0.00 0.00 35 1016.8
20260503184854 15 87 8.0 11.3 0.00 0.00 0.00 34 1017.1
20260503184350 15 12 6.4 17.7 0.00 0.00 0.00 31 1017.4
20260503183845 15 68 8.0 24.1 0.00 0.00 0.00 32 1017.2
20260503183343 14 220 1.6 4.8 0.00 0.00 0.00 33 1017.2
20260503182840 14 303 1.6 16.1 0.00 0.00 0.00 34 1017.3
20260503182340 15 288 12.9 17.7 0.00 0.00 0.00 34 1017.3
20260503181836 15 172 6.4 14.5 0.00 0.00 0.00 34 1017.1
20260503181333 14 199 9.7 12.9 0.00 0.00 0.00 33 1017.3
20260503180829 14 312 6.4 12.9 0.00 0.00 0.00 32 1017.1
20260503180328 14 342 12.9 24.1 0.00 0.00 0.00 32 1017.2
20260503175824 15 217 0.0 11.3 0.00 0.00 0.00 31 1017.1
20260503175322 14 328 3.2 11.3 0.00 0.00 0.00 32 1017.2
20260503174817 13 227 3.2 22.5 0.00 0.00 0.00 40 1017.4
20260503174316 13 201 6.4 16.1 0.00 0.00 0.00 37 1017.5
20260503173811 13 305 9.7 12.9 0.00 0.00 0.00 34 1017.5
20260503173307 13 55 12.9 25.7 0.00 0.00 0.00 37 1017.4
20260503172804 13 311 8.0 14.5 0.00 0.00 0.00 35 1017.6
20260503172301 13 301 4.8 12.9 0.00 0.00 0.00 37 1017.8
20260503171757 13 229 9.7 11.3 0.00 0.00 0.00 33 1017.8
20260503171255 12 249 8.0 11.3 0.00 0.00 0.00 35 1017.9
20260503170752 13 309 8.0 20.9 0.00 0.00 0.00 37 1018.0
20260503170249 13 295 6.4 17.7 0.00 0.00 0.00 39 1017.8
20260503160211 11 297 14.5 17.7 0.00 0.00 0.00 40 1018.6
20260503150641 9 314 3.2 12.9 0.00 0.00 0.00 45 1019.2
20260503150137 9 249 6.4 16.1 0.00 0.00 0.00 48 1019.1
20260503131030 9 322 3.2 6.4 0.00 0.00 0.00 52 1019.0
20260503130528 8 130 1.6 4.8 0.00 0.00 0.00 54 1019.1
20260503110418 2 126 0.0 1.6 0.00 0.00 0.00 78 1018.1